Lid_Strength_Index
1 1 2 2 2 3 3 2 2 1 1 0 1 1 0 -0 -0 1 3 1 5 7 6 5 5 7 7 7 10 9 9 9 10 12 13 13 14 13 14 13 13 14 15 16 15 16 18 10 10 13 12 10 11 10
2 2 2 3 3 3 2 1 1 2 2 2 2 2 1 1 0 -0 5 1 1 5 7 3 4 3 5 4 6 8 9 9 8 11 11 11 14 15 14 16 12 15 14 15 13 15 10 9 9 9 8 10 10 10
2 2 3 3 3 2 2 2 2 2 2 2 2 1 1 1 1 1 4 3 3 5 6 5 6 3 3 2 2 8 8 6 8 8 10 10 14 14 16 16 14 12 10 13 12 10 10 9 8 7 7 9 9 9
2 3 3 3 3 2 2 2 2 2 2 2 2 2 1 1 1 1 4 4 3 5 9 8 2 5 2 2 3 4 5 4 5 7 10 10 12 10 13 12 13 11 10 11 11 10 9 9 9 8 8 8 9 9
3 3 3 3 2 2 2 2 2 2 2 2 1 2 2 2 1 2 3 4 3 6 9 8 5 3 3 3 4 4 5 5 7 8 9 11 9 10 10 11 14 10 12 13 13 9 9 9 8 8 9 10 11 11
3 3 3 2 2 2 2 2 2 3 3 3 2 2 2 4 3 4 9 4 2 3 7 11 5 5 4 3 4 5 4 5 7 10 10 9 7 9 12 13 9 8 8 8 9 7 8 8 9 9 11 11 11 12
4 3 2 2 2 2 3 2 3 3 3 3 2 2 2 2 5 7 9 5 1 2 7 10 10 6 4 4 5 6 5 7 8 9 10 10 10 9 11 13 9 8 8 8 8 9 11 10 12 10 10 10 10 11
3 2 2 2 2 2 2 2 3 3 3 3 3 2 2 2 3 5 4 2 3 5 7 12 12 10 7 10 10 7 10 9 9 10 10 11 10 10 12 9 9 9 8 8 9 8 10 10 10 10 10 11 12 13
2 2 2 2 2 2 2 2 2 3 3 3 4 4 5 6 8 6 2 2 3 7 11 11 13 14 7 9 9 9 9 12 9 12 11 11 12 13 10 9 9 8 9 10 10 10 10 10 10 9 10 12 13 13
2 2 2 2 2 2 2 2 2 2 3 3 5 9 11 7 4 4 6 9 9 8 8 12 10 12 9 10 11 11 11 12 14 12 10 12 13 9 8 8 9 9 9 9 12 11 10 11 12 11 12 12 12 13
2 2 2 2 2 2 2 2 2 2 3 6 9 11 7 4 6 8 11 11 11 11 9 10 10 11 8 12 12 11 13 13 15 13 13 14 14 12 9 9 9 9 9 9 8 9 10 11 12 13 13 13 13 14
2 2 2 2 2 2 2 2 1 5 6 6 6 5 6 7 10 12 13 12 11 12 10 11 10 10 10 8 11 12 12 13 15 12 14 16 13 11 10 11 11 10 10 10 10 11 11 12 12 13 13 14 15 17
2 2 2 2 2 2 2 2 1 2 3 5 8 10 11 12 15 16 18 15 14 11 11 11 11 10 10 10 13 13 16 17 12 17 16 15 12 12 12 13 13 12 12 13 13 13 13 13 13 14 16 17 17 18
2 2 2 2 2 2 2 1 1 2 5 9 13 17 17 17 14 14 13 12 11 10 10 10 11 11 11 12 13 16 14 14 19 19 17 13 13 13 13 13 14 14 14 14 14 14 15 15 16 16 17 17 17 18
2 2 2 2 2 2 2 2 2 5 9 11 12 16 14 12 12 13 11 10 10 10 10 10 10 11 12 14 13 14 17 19 18 18 14 13 12 13 14 14 16 17 17 17 17 17 17 16 17 19 20 19 19 22
2 3 4 2 2 2 2 3 5 6 9 10 11 12 10 11 10 10 10 10 8 11 10 10 12 14 14 14 14 17 16 19 14 14 12 13 13 14 15 16 17 17 17 18 18 18 18 18 19 21 22 23 25 23
2 5 2 2 2 2 3 6 8 10 11 11 12 10 11 10 11 10 10 10 10 10 13 13 15 14 14 15 14 13 14 13 12 12 12 13 15 16 17 17 17 17 18 18 18 18 19 20 20 20 22 26 24 24
5 4 3 2 3 5 7 7 9 11 12 12 12 11 10 10 12 12 10 11 10 11 11 12 12 13 16 15 15 13 12 12 11 12 13 15 15 16 15 17 17 17 17 17 17 18 18 19 20 20 21 22 22 25
5 4 2 2 4 7 9 8 9 13 12 12 11 12 12 13 12 11 11 10 11 10 10 11 13 13 13 12 12 12 11 11 12 13 13 13 13 16 17 17 17 17 17 17 17 17 17 18 17 18 18 18 20 21
2 2 2 2 3 7 9 9 7 11 13 12 11 12 12 13 12 13 12 10 10 10 12 13 13 13 12 11 10 10 11 11 12 13 14 13 13 14 16 16 16 16 16 16 17 17 17 17 16 16 17 18 20 20
4 4 3 4 6 7 9 10 11 10 11 11 9 10 12 10 12 12 12 9 10 10 11 11 12 12 10 9 9 9 10 10 12 14 14 14 13 14 15 16 15 15 15 16 17 17 17 16 16 16 19 19 20 19
6 3 6 5 8 8 9 9 9 10 11 11 10 10 14 16 15 14 10 11 11 10 9 11 11 11 10 10 9 9 9 10 12 14 14 14 14 14 14 15 15 16 16 16 15 16 16 16 15 17 19 20 18 18
4 5 8 8 11 12 13 9 11 11 14 14 12 13 14 15 13 10 14 10 11 10 10 10 10 10 11 10 10 9 10 11 13 14 13 13 15 15 14 14 14 15 16 17 15 16 18 17 18 17 17 18 18 21
5 9 12 13 12 17 12 14 10 11 12 12 14 15 14 14 12 14 12 11 11 10 11 11 10 11 11 11 11 11 10 10 11 11 11 11 13 15 13 13 15 14 13 14 14 16 16 16 18 17 17 19 21 21
13 12 14 14 13 16 18 18 15 13 18 15 17 14 13 12 18 18 14 12 11 11 11 10 11 11 11 12 11 11 10 9 10 11 10 9 12 12 12 12 13 12 13 15 18 16 18 16 17 18 20 19 19 22
12 13 14 13 16 16 16 19 19 18 18 18 13 14 11 18 20 18 14 13 13 12 11 11 11 11 11 10 11 11 10 9 9 9 9 8 9 11 12 13 12 12 12 12 15 16 17 17 17 18 20 21 21 22
12 11 8 8 9 10 13 11 11 15 18 17 12 12 12 19 18 16 13 12 12 11 10 9 9 10 10 10 9 10 9 9 9 9 10 8 8 9 10 13 15 14 14 12 13 15 16 17 17 18 19 26 24 21
9 8 13 11 12 10 17 15 11 17 14 9 11 15 16 19 19 16 15 13 12 10 12 10 9 10 10 11 12 11 10 12 10 10 10 11 12 12 12 13 13 12 12 12 13 13 14 15 17 20 23 21 23 26
14 10 12 15 16 16 15 18 16 12 12 12 16 19 20 17 17 16 15 13 11 11 12 14 13 14 13 14 13 12 11 12 13 12 16 17 16 13 14 13 12 12 12 14 14 13 14 15 16 18 19 20 19 23
14 10 13 16 17 19 18 14 13 14 12 14 14 15 16 18 17 15 15 14 15 16 15 14 14 13 14 13 13 12 12 12 13 13 15 16 14 13 12 13 13 13 13 13 13 14 13 15 15 17 18 18 19 20
11 11 12 13 16 15 14 12 11 11 10 12 14 16 19 18 17 17 17 16 16 17 17 17 16 16 16 16 16 14 13 13 12 12 13 13 12 12 12 12 12 13 13 13 14 14 15 16 16 18 19 20 21 21
11 16 16 18 17 13 12 13 12 13 12 13 16 17 18 18 21 19 18 18 19 20 20 19 19 19 17 17 14 13 13 13 13 12 13 12 12 11 12 13 13 14 14 15 16 16 17 18 19 19 20 21 22 22
14 13 19 20 18 16 16 15 16 16 17 18 18 18 19 20 22 20 19 18 20 21 21 20 19 18 17 16 16 15 14 15 13 12 11 11 12 12 12 13 14 15 15 16 17 18 19 19 20 20 21 22 23 25